MRC-100
1 56993U 23084BV  24195.88651610  .00042403  00000-0  13581-2 0  9998
2 56993  97.5331 316.0604 0010605 284.3192  75.6872 15.32202026 60300
UmKA 1 (RS40S)
1 57172U 23091G   24195.87819963  .00007794  00000-0  50980-3 0  9991
2 57172  97.6104 247.6573 0017338  36.3409 323.8992 15.07929350 57517
CubeBel-2 (EU11S)
1 57175U 23091K   24195.88179411  .00010292  00000-0  65776-3 0  9998
2 57175  97.6102 247.6406 0015888  48.1664 312.0918 15.08717494 57518
VERONIKA
1 58261U 23174F   24195.82760888  .00025486  00000-0  11074-2 0  9997
2 58261  97.4591 270.3830 0013223 147.3544 212.8512 15.22197462 37764
KAFASAT
1 58317U 23174BP  24195.84906897  .00031653  00000-0  12358-2 0  9992
2 58317  97.4536 271.0936 0012113 127.3211 232.9132 15.25771534 37825
ENSO
1 58470U 23185J   24195.86347978  .00020552  00000-0  84387-3 0  9993
2 58470  97.4249 262.3182 0012967 178.9287 181.1980 15.24162621 34209
EIRSAT-1
1 58472U 23185L   24195.82605998  .00022800  00000-0  91797-3 0  9991
2 58472  97.4243 262.3462 0012597 179.3026 180.8231 15.24805430 34208
SO-121
1 58567U 23174CY  24195.45933374  .00058588  00000-0  18437-2 0  9996
2 58567  97.4524 271.3194 0012740 139.6419 220.5770 15.32657600 37804
SONATE-2
1 59112U 24043Q   24195.32356490  .00010942  00000-0  52142-3 0  9997
2 59112  97.4811 318.8947 0014701 198.5492 161.5209 15.19197147 19774
KASHIWA
1 59508U 98067WH  24195.24520906  .00262967  00000-0  15019-2 0  9996
2 59508  51.6268 177.8664 0011232  56.1051 304.1016 15.77493986 14596
ELaNa 43 OBJECT A
1 60203U 24125A   24190.56946133  .00010916  00000-0  51667-3 0  9993
2 60203  97.3213  43.3332 0025925 245.7203 167.8006 15.19219263   672
ELaNa 43 OBJECT B
1 60204U 24125B   24190.56452311  .00019288  00000-0  86635-3 0  9998
2 60204  97.3223  43.3417 0021463 231.7148 181.9989 15.20989274   668
ELaNa 43 OBJECT C
1 60205U 24125C   24190.56566853  .00012911  00000-0  58868-3 0  9999
2 60205  97.3217  43.3389 0021360 237.6174 176.1545 15.20564316   660
ELaNa 43 OBJECT D
1 60206U 24125D   24190.56883171  .00008496  00000-0  39578-3 0  9995
2 60206  97.3220  43.3375 0025651 238.4011 181.7072 15.19848381   668
ELaNa 43 OBJECT E
1 60207U 24125E   24190.57022269  .00008565  00000-0  40054-3 0  9998
2 60207  97.3220  43.3377 0025917 239.8777 185.5939 15.19705879   668
ELaNa 43 OBJECT F
1 60208U 24125F   24190.57167409  .00009093  00000-0  42753-3 0  9990
2 60208  97.3219  43.3380 0026083 241.2175 188.9188 15.19499130   679
MESAT1
1 60209U 24125G   24190.56980029  .00010442  00000-0  49625-3 0  9996
2 60209  97.3214  43.3326 0025220 247.3842 166.3046 15.19109044   669
ELaNa 43 OBJECT H
1 60210U 24125H   24190.61607706  .00008108  00000-0  30231-3 0  9991
2 60210  97.3131  44.6467 0050243 238.0504 185.4372 15.26490133   668
Ariane 6 OBJECT A
1 60235U 24128A   24194.73858390  .00003425  00000-0  32896-3 0  9991
2 60235  61.9957 151.6023 0017570 252.2904 107.6485 14.94902808   441
Ariane 6 OBJECT B
1 60236U 24128B   24194.80175121  .00003750  00000-0  34249-3 0  9999
2 60236  61.9943 151.3617 0010053 275.6151  84.3976 14.96788051   445
Ariane 6 OBJECT D
1 60237U 24128C   24194.80171905  .00005779  00000-0  51811-3 0  9993
2 60237  61.9947 151.3629 0010000 274.9863  85.0221 14.96809926   432
Ariane 6 OBJECT E
1 60239U 24128E   24194.80216021  .00003150  00000-0  29161-3 0  9998
2 60239  62.0144 151.3776 0008610 285.5254  74.4589 14.96630159   444
Ariane 6 OBJECT F
1 60240U 24128F   24194.80275205  .00003433  00000-0  31900-3 0  9997
2 60240  61.9984 151.3709 0010478 255.7669 104.2295 14.96283846   449
Ariane 6 OBJECT G
1 60241U 24128G   24194.74815074  .00005505  00000-0  49338-3 0  9991
2 60241  61.9955 151.5428 0010293 273.9696 158.1515 14.96884003   439
Ariane 6 OBJECT H
1 60242U 24128H   24194.80372610  .00007675  00000-0  69959-3 0  9994
2 60242  61.9863 151.3570 0013420 259.0543 100.8980 14.95796978   448
Ariane 6 OBJECT J
1 60243U 24128J   24194.80411008  .00007763  00000-0  71073-3 0  9998
2 60243  61.9931 151.3656 0013261 249.5969 110.4415 14.95614251   442
